COSMOS 2580

导读

COSMOS 2580(宇宙2580)是独联体(CIS,实际为俄罗斯航天)于2024年12月4日发射的编号卫星,属于俄罗斯经典"宇宙"系列卫星序列。"宇宙"系列多承担军事侦察、空间技术试验等航天任务,该卫星入轨后已在轨运行超15个月,延续了独联体/俄罗斯持续推进航天部署的节奏,服务航天技术验证与空间态势感知相关领域。

Basic Information
目录编号:
62216
目录名称:
COSMOS 2580
国际标识:
2024-230A
轨道中心:
EARTH
卫星名称:
COSMOS 2580
卫星全名:
COSMOS 2580
卫星状态:
在轨 (已飞行564 天)
发射日期:
2024-12-04 UTC
国别 :
俄罗斯(独联体) (CIS)
星等 :
--
Orbit Information
数据来源 国际轨道数据 AOE轨道数据
星历时间 2026-06-21T12:10:27+0800
7小时前
查看轨道信息
2026-06-20T06:00:00+0800
1天前
查看轨道信息
半长轴 7283.476km 7283.478km
偏心率 0.000621 0.0006363
轨道倾角 67.149° 67.148°
近地点辐角 263.172° 262.950°
升交点赤经 41.157° 44.213°
平近点角 96.866° 256.532°
近地点 900.815km 900.706km
远地点 909.863km 909.976km
周期 103.102分钟 103.102分钟
每日圈数 13.96673 13.966726
Detailed Information
使用方式:
暂无
2D Orbit Map
3D Orbit Map
Orbit Altitude Analysis Chart
Orbit Inclination Analysis Chart
Orbit Comprehensive Analysis Chart
View Comprehensive Chart